| time (UTC) | temp F | wind direction | speed knots | gust knots | rain 1hr in | rain 24hr in | rain mn in | humidity % | barometer mb |
| 20260906022519 | 82 | 63 | 0.0 | 0.9 | 0.00 | 0.00 | 0.00 | 76 | 1012.4 |
| 20260906021539 | 83 | 62 | 0.0 | 0.9 | 0.00 | 0.00 | 0.00 | 75 | 1012.3 |
| 20260906020519 | 84 | 0.0 | 0.0 | 0.00 | 0.00 | 0.00 | 74 | 1012.2 | |
| 20260906015519 | 84 | 0.0 | 0.0 | 0.00 | 0.00 | 0.00 | 72 | 1012.0 | |
| 20260906014519 | 85 | 0.0 | 0.0 | 0.00 | 0.00 | 0.00 | 71 | 1011.9 | |
| 20260906013540 | 85 | 31 | 0.0 | 0.9 | 0.00 | 0.00 | 0.00 | 70 | 1011.9 |
| 20260906012519 | 85 | 24 | 0.9 | 2.6 | 0.00 | 0.00 | 0.00 | 70 | 1012.1 |
| 20260906011520 | 85 | 32 | 1.7 | 3.5 | 0.00 | 0.00 | 0.00 | 73 | 1012.2 |
| 20260906010520 | 85 | 0.0 | 0.0 | 0.00 | 0.00 | 0.00 | 73 | 1012.0 | |
| 20260906005520 | 86 | 0.0 | 0.0 | 0.00 | 0.00 | 0.00 | 72 | 1011.9 | |
| 20260906004521 | 87 | 0.0 | 0.0 | 0.00 | 0.00 | 0.00 | 70 | 1011.8 | |
| 20260906003521 | 87 | 8 | 0.0 | 0.0 | 0.00 | 0.00 | 0.00 | 68 | 1011.7 |
| 20260906002521 | 88 | 12 | 1.7 | 1.7 | 0.00 | 0.00 | 0.00 | 67 | 1011.6 |
| 20260906001521 | 89 | 16 | 1.7 | 1.7 | 0.00 | 0.00 | 0.00 | 65 | 1011.6 |
| 20260906000521 | 90 | 23 | 1.7 | 1.7 | 0.00 | 0.00 | 0.00 | 63 | 1011.6 |
| 20260905235522 | 91 | 32 | 1.7 | 2.6 | 0.00 | 0.00 | 0.00 | 61 | 1011.7 |
| 20260905234522 | 91 | 33 | 1.7 | 2.6 | 0.00 | 0.00 | 0.00 | 61 | 1011.6 |
| 20260905233522 | 92 | 39 | 1.7 | 2.6 | 0.00 | 0.00 | 0.00 | 59 | 1011.6 |
| 20260905232517 | 93 | 35 | 1.7 | 2.6 | 0.00 | 0.00 | 0.00 | 58 | 1011.5 |
| 20260905231517 | 93 | 36 | 0.9 | 2.6 | 0.00 | 0.00 | 0.00 | 56 | 1011.4 |
| 20260905230517 | 94 | 29 | 1.7 | 4.3 | 0.00 | 0.00 | 0.00 | 55 | 1011.5 |
| 20260905225519 | 94 | 25 | 1.7 | 3.5 | 0.00 | 0.00 | 0.00 | 53 | 1011.5 |
| 20260905224517 | 95 | 31 | 0.0 | 2.6 | 0.00 | 0.00 | 0.00 | 52 | 1011.5 |
| 20260905223517 | 95 | 34 | 0.9 | 2.6 | 0.00 | 0.00 | 0.00 | 51 | 1011.5 |
| 20260905222520 | 95 | 28 | 0.9 | 2.6 | 0.00 | 0.00 | 0.00 | 50 | 1011.5 |
| 20260905221518 | 96 | 22 | 1.7 | 3.5 | 0.00 | 0.00 | 0.00 | 49 | 1011.4 |
| 20260905220518 | 96 | 29 | 0.9 | 2.6 | 0.00 | 0.00 | 0.00 | 49 | 1011.5 |
| 20260905215517 | 96 | 46 | 0.0 | 1.7 | 0.00 | 0.00 | 0.00 | 49 | 1011.5 |
| 20260905214538 | 96 | 29 | 0.0 | 2.6 | 0.00 | 0.00 | 0.00 | 50 | 1011.5 |
| 20260905213518 | 97 | 27 | 0.9 | 2.6 | 0.00 | 0.00 | 0.00 | 49 | 1011.5 |
| 20260905212519 | 97 | 24 | 1.7 | 2.6 | 0.00 | 0.00 | 0.00 | 50 | 1011.6 |
| 20260905211518 | 97 | 31 | 0.9 | 2.6 | 0.00 | 0.00 | 0.00 | 48 | 1011.6 |
| 20260905210518 | 98 | 33 | 0.9 | 2.6 | 0.00 | 0.00 | 0.00 | 47 | 1011.6 |
| 20260905205516 | 98 | 89 | 0.0 | 1.7 | 0.00 | 0.00 | 0.00 | 48 | 1011.7 |
| 20260905204519 | 100 | 22 | 1.7 | 3.5 | 0.00 | 0.00 | 0.00 | 47 | 1011.8 |
| 20260905203540 | 101 | 43 | 0.0 | 1.7 | 0.00 | 0.00 | 0.00 | 47 | 1011.9 |
| 20260905202519 | 102 | 25 | 0.0 | 2.6 | 0.00 | 0.00 | 0.00 | 46 | 1012.0 |
| 20260905201516 | 102 | 328 | 0.0 | 1.7 | 0.00 | 0.00 | 0.00 | 46 | 1012.1 |
| 20260905200517 | 103 | 158 | 0.0 | 2.6 | 0.00 | 0.00 | 0.00 | 45 | 1012.3 |
| 20260905195519 | 103 | 213 | 0.0 | 1.7 | 0.00 | 0.00 | 0.00 | 46 | 1012.3 |
| 20260905194520 | 103 | 6 | 0.0 | 3.5 | 0.00 | 0.00 | 0.00 | 46 | 1012.5 |
| 20260905193517 | 102 | 15 | 0.9 | 3.5 | 0.00 | 0.00 | 0.00 | 48 | 1012.5 |
| 20260905192517 | 102 | 22 | 0.9 | 4.3 | 0.00 | 0.00 | 0.00 | 47 | 1012.7 |
| 20260905191517 | 103 | 44 | 0.9 | 4.3 | 0.00 | 0.00 | 0.00 | 45 | 1012.8 |
| 20260905190517 | 104 | 10 | 0.9 | 2.6 | 0.00 | 0.00 | 0.00 | 45 | 1013.0 |
| 20260905185518 | 103 | 29 | 0.9 | 2.6 | 0.00 | 0.00 | 0.00 | 46 | 1013.1 |
| 20260905184518 | 103 | 226 | 0.0 | 1.7 | 0.00 | 0.00 | 0.00 | 48 | 1013.2 |
| 20260905183519 | 103 | 133 | 0.9 | 3.5 | 0.00 | 0.00 | 0.00 | 47 | 1013.4 |
| 20260905182518 | 103 | 17 | 0.9 | 2.6 | 0.00 | 0.00 | 0.00 | 48 | 1013.6 |
| 20260905181518 | 103 | 35 | 0.9 | 2.6 | 0.00 | 0.00 | 0.00 | 48 | 1013.6 |
| 20260905180559 | 103 | 23 | 0.9 | 3.5 | 0.00 | 0.00 | 0.00 | 47 | 1013.7 |
| 20260905175518 | 103 | 8 | 0.9 | 2.6 | 0.00 | 0.00 | 0.00 | 48 | 1013.8 |
| 20260905174518 | 102 | 235 | 0.0 | 1.7 | 0.00 | 0.00 | 0.00 | 50 | 1013.9 |
| 20260905173559 | 102 | 304 | 0.9 | 4.3 | 0.00 | 0.00 | 0.00 | 51 | 1013.9 |
| 20260905172517 | 102 | 4 | 0.9 | 2.6 | 0.00 | 0.00 | 0.00 | 50 | 1014.0 |
| 20260905171516 | 101 | 33 | 0.0 | 2.6 | 0.00 | 0.00 | 0.00 | 51 | 1014.1 |
| 20260905170519 | 102 | 188 | 0.9 | 2.6 | 0.00 | 0.00 | 0.00 | 51 | 1014.3 |
| 20260905165520 | 100 | 36 | 0.9 | 3.5 | 0.00 | 0.00 | 0.00 | 51 | 1014.5 |
| 20260905164540 | 99 | 56 | 0.9 | 2.6 | 0.00 | 0.00 | 0.00 | 53 | 1014.6 |
| 20260905163517 | 100 | 213 | 0.9 | 4.3 | 0.00 | 0.00 | 0.00 | 51 | 1014.8 |
| 20260905162517 | 100 | 70 | 0.0 | 2.6 | 0.00 | 0.00 | 0.00 | 52 | 1014.9 |
| 20260905161540 | 98 | 40 | 0.9 | 3.5 | 0.00 | 0.00 | 0.00 | 53 | 1015.0 |
| 20260905160517 | 98 | 359 | 0.0 | 3.5 | 0.00 | 0.00 | 0.00 | 57 | 1015.2 |
| 20260905155518 | 96 | 24 | 0.9 | 2.6 | 0.00 | 0.00 | 0.00 | 58 | 1015.3 |
| 20260905154518 | 94 | 15 | 0.9 | 3.5 | 0.00 | 0.00 | 0.00 | 62 | 1015.4 |
| 20260905153518 | 92 | 39 | 0.0 | 0.0 | 0.00 | 0.00 | 0.00 | 65 | 1015.5 |
| 20260905152530 | 90 | 149 | 0.9 | 1.7 | 0.00 | 0.00 | 0.00 | 66 | 1015.6 |
| 20260905151516 | 89 | 23 | 0.9 | 1.7 | 0.00 | 0.00 | 0.00 | 68 | 1015.7 |
| 20260905150516 | 87 | 18 | 1.7 | 2.6 | 0.00 | 0.00 | 0.00 | 71 | 1015.7 |
| 20260905145531 | 85 | 25 | 0.0 | 1.7 | 0.00 | 0.00 | 0.00 | 76 | 1015.8 |
| 20260905144531 | 84 | 0.0 | 0.0 | 0.00 | 0.00 | 0.00 | 78 | 1015.9 | |
| 20260905143551 | 82 | 0.0 | 0.0 | 0.00 | 0.00 | 0.00 | 80 | 1015.9 | |
| 20260905142531 | 81 | 44 | 0.0 | 0.0 | 0.00 | 0.00 | 0.00 | 82 | 1015.9 |
| 20260905141531 | 80 | 84 | 0.0 | 0.9 | 0.00 | 0.00 | 0.00 | 83 | 1016.0 |
| 20260905140537 | 80 | 73 | 0.0 | 0.9 | 0.00 | 0.00 | 0.00 | 85 | 1016.1 |
| 20260905135517 | 79 | 69 | 0.0 | 0.9 | 0.00 | 0.00 | 0.00 | 86 | 1016.1 |
| 20260905134517 | 79 | 123 | 0.0 | 0.9 | 0.00 | 0.00 | 0.00 | 87 | 1016.0 |
| 20260905133557 | 78 | 170 | 0.0 | 0.0 | 0.00 | 0.00 | 0.00 | 87 | 1016.1 |
| 20260905132518 | 78 | 156 | 0.0 | 0.0 | 0.00 | 0.00 | 0.00 | 88 | 1016.2 |
| 20260905131532 | 77 | 0.0 | 0.0 | 0.00 | 0.00 | 0.00 | 89 | 1016.2 | |
| 20260905130517 | 77 | 55 | 0.0 | 0.0 | 0.00 | 0.00 | 0.00 | 90 | 1016.2 |
| 20260905125538 | 76 | 0.0 | 0.0 | 0.00 | 0.00 | 0.00 | 90 | 1016.2 | |
| 20260905124518 | 76 | 49 | 0.0 | 0.9 | 0.00 | 0.00 | 0.00 | 92 | 1016.2 |
| 20260905123539 | 75 | 38 | 0.0 | 0.9 | 0.00 | 0.00 | 0.00 | 94 | 1016.2 |
| 20260905122518 | 74 | 0.0 | 0.0 | 0.00 | 0.00 | 0.00 | 97 | 1016.0 | |
| 20260905121518 | 74 | 0.0 | 0.0 | 0.00 | 0.00 | 0.00 | 97 | 1015.9 | |
| 20260905120518 | 73 | 0.0 | 0.0 | 0.00 | 0.00 | 0.00 | 97 | 1015.8 | |
| 20260905115519 | 73 | 0.0 | 0.0 | 0.00 | 0.00 | 0.00 | 97 | 1015.7 | |
| 20260905114519 | 72 | 110 | 0.0 | 0.9 | 0.00 | 0.00 | 0.00 | 97 | 1015.6 |
| 20260905113519 | 72 | 0.0 | 0.0 | 0.00 | 0.00 | 0.00 | 97 | 1015.5 | |
| 20260905112519 | 72 | 0.0 | 0.0 | 0.00 | 0.00 | 0.00 | 97 | 1015.4 | |
| 20260905111519 | 72 | 0.0 | 0.0 | 0.00 | 0.00 | 0.00 | 97 | 1015.3 | |
| 20260905110520 | 72 | 0.0 | 0.0 | 0.00 | 0.00 | 0.00 | 97 | 1015.2 | |
| 20260905105520 | 72 | 0.0 | 0.0 | 0.00 | 0.00 | 0.00 | 97 | 1015.1 | |
| 20260905104520 | 72 | 0.0 | 0.0 | 0.00 | 0.00 | 0.00 | 96 | 1015.1 | |
| 20260905103520 | 72 | 0.0 | 0.0 | 0.00 | 0.00 | 0.00 | 96 | 1015.0 | |
| 20260905102541 | 72 | 0.0 | 0.0 | 0.00 | 0.00 | 0.00 | 96 | 1014.9 | |
| 20260905101521 | 72 | 0.0 | 0.0 | 0.00 | 0.00 | 0.00 | 96 | 1014.8 | |
| 20260905100521 | 72 | 0.0 | 0.0 | 0.00 | 0.00 | 0.00 | 96 | 1014.8 | |
| 20260905095521 | 72 | 0.0 | 0.0 | 0.00 | 0.00 | 0.00 | 96 | 1014.7 | |
| 20260905094521 | 73 | 0.0 | 0.0 | 0.00 | 0.00 | 0.00 | 96 | 1014.7 | |
| 20260905093521 | 73 | 0.0 | 0.0 | 0.00 | 0.00 | 0.00 | 96 | 1014.7 | |
| 20260905092522 | 73 | 0.0 | 0.0 | 0.00 | 0.00 | 0.00 | 96 | 1014.7 | |
| 20260905091521 | 73 | 0.0 | 0.0 | 0.00 | 0.00 | 0.00 | 95 | 1014.7 | |
| 20260905090522 | 73 | 0.0 | 0.0 | 0.00 | 0.00 | 0.00 | 95 | 1014.7 | |
| 20260905085522 | 73 | 0.0 | 0.0 | 0.00 | 0.00 | 0.00 | 95 | 1014.7 | |
| 20260905084522 | 73 | 0.0 | 0.0 | 0.00 | 0.00 | 0.00 | 95 | 1014.7 | |
| 20260905083522 | 73 | 0.0 | 0.0 | 0.00 | 0.00 | 0.00 | 95 | 1014.6 | |
| 20260905082543 | 73 | 0.0 | 0.0 | 0.00 | 0.00 | 0.00 | 95 | 1014.7 | |
| 20260905081523 | 74 | 0.0 | 0.0 | 0.00 | 0.00 | 0.00 | 95 | 1014.7 | |
| 20260905080523 | 73 | 0.0 | 0.0 | 0.00 | 0.00 | 0.00 | 95 | 1014.7 | |
| 20260905075523 | 74 | 0.0 | 0.0 | 0.00 | 0.00 | 0.00 | 94 | 1014.7 | |
| 20260905074523 | 74 | 0.0 | 0.0 | 0.00 | 0.00 | 0.00 | 94 | 1014.7 | |
| 20260905073523 | 74 | 0.0 | 0.0 | 0.00 | 0.00 | 0.00 | 94 | 1014.7 | |
| 20260905072604 | 74 | 0.0 | 0.0 | 0.00 | 0.00 | 0.00 | 94 | 1014.7 | |
| 20260905071524 | 74 | 0.0 | 0.0 | 0.00 | 0.00 | 0.00 | 94 | 1014.7 | |
| 20260905070524 | 74 | 0.0 | 0.0 | 0.00 | 0.00 | 0.00 | 93 | 1014.7 | |
| 20260905065524 | 74 | 0.0 | 0.0 | 0.00 | 0.00 | 0.00 | 93 | 1014.7 | |
| 20260905064525 | 74 | 0.0 | 0.0 | 0.00 | 0.00 | 0.00 | 93 | 1014.7 | |
| 20260905063525 | 75 | 0.0 | 0.0 | 0.00 | 0.00 | 0.00 | 93 | 1014.7 | |
| 20260905062605 | 75 | 0.0 | 0.0 | 0.00 | 0.00 | 0.00 | 93 | 1014.8 | |
| 20260905061605 | 75 | 0.0 | 0.0 | 0.00 | 0.00 | 0.00 | 92 | 1014.7 | |
| 20260905060525 | 75 | 0.0 | 0.0 | 0.00 | 0.00 | 0.00 | 92 | 1014.7 | |
| 20260905055525 | 75 | 0.0 | 0.0 | 0.00 | 0.00 | 0.00 | 91 | 1014.7 | |
| 20260905054525 | 75 | 0.0 | 0.0 | 0.00 | 0.00 | 0.00 | 90 | 1014.7 | |
| 20260905053526 | 75 | 0.0 | 0.0 | 0.00 | 0.00 | 0.00 | 90 | 1014.7 | |
| 20260905052526 | 76 | 0.0 | 0.0 | 0.00 | 0.00 | 0.00 | 90 | 1014.8 | |
| 20260905051526 | 76 | 0.0 | 0.0 | 0.00 | 0.00 | 0.00 | 89 | 1014.8 | |
| 20260905050546 | 76 | 0.0 | 0.0 | 0.00 | 0.00 | 0.00 | 89 | 1014.8 | |
| 20260905045526 | 76 | 0.0 | 0.0 | 0.00 | 0.00 | 0.00 | 89 | 1014.8 | |
| 20260905044526 | 76 | 0.0 | 0.0 | 0.00 | 0.00 | 0.00 | 89 | 1014.9 | |
| 20260905043527 | 77 | 35 | 0.0 | 0.9 | 0.00 | 0.00 | 0.00 | 89 | 1014.9 |
| 20260905042527 | 77 | 0.0 | 0.0 | 0.00 | 0.00 | 0.00 | 88 | 1014.8 | |
| 20260905041527 | 77 | 0.0 | 0.0 | 0.00 | 0.00 | 0.00 | 88 | 1014.7 | |
| 20260905040527 | 77 | 0.0 | 0.0 | 0.00 | 0.00 | 0.00 | 87 | 1014.7 | |
| 20260905035528 | 78 | 0.0 | 0.0 | 0.00 | 0.00 | 0.00 | 87 | 1014.8 | |
| 20260905034548 | 78 | 0.0 | 0.0 | 0.00 | 0.00 | 0.00 | 86 | 1014.9 | |
| 20260905033549 | 78 | 25 | 0.0 | 0.9 | 0.00 | 0.00 | 0.00 | 85 | 1015.0 |
| 20260905032528 | 79 | 0.0 | 0.0 | 0.00 | 0.00 | 0.00 | 85 | 1015.0 | |
| 20260905031548 | 79 | 35 | 0.0 | 0.9 | 0.00 | 0.00 | 0.00 | 84 | 1015.0 |
| 20260905030529 | 79 | 72 | 0.0 | 0.0 | 0.00 | 0.00 | 0.00 | 83 | 1015.0 |
| 20260905025609 | 79 | 84 | 0.0 | 0.9 | 0.00 | 0.00 | 0.00 | 83 | 1015.1 |
| 20260905024529 | 80 | 146 | 0.0 | 0.0 | 0.00 | 0.00 | 0.00 | 82 | 1015.1 |
| 20260905023529 | 80 | 121 | 0.0 | 0.9 | 0.00 | 0.00 | 0.00 | 81 | 1015.1 |